Baton Rouge, LA

6:22 AM CST on November 15, 2019 (GMT -0600)
Baton Rouge Metro-Ryan

Weather History for KBTR - May, 2019

Change the Weather History Date:

Friday, May 24, 2019

  Actual Average Record
Temperature  
Mean Temperature 81 °F 78 °F  
Max Temperature 91 °F 88 °F 95 °F (1941)
Min Temperature 71 °F 67 °F 54 °F (1912)
Degree Days  
Heating Degree Days 0 0  
Month to date heating degree days 0 0  
Since 1 July heating degree days 1391 1553  
Cooling Degree Days 16 13  
Month to date cooling degree days 291 240  
Year to date cooling degree days 557 471  
Growing Degree Days 31 (Base 50)    
Moisture  
Dew Point 70 °F    
Average Humidity 72    
Maximum Humidity 100    
Minimum Humidity 44    
Precipitation  
Precipitation 0.00 in 0.18 in 2.30 in (1907)
Month to date precipitation 9.70 3.71  
Year to date precipitation 26.85 23.34  
Snow  
Snow 0.00 in - - ()
Month to date snowfall 0.0  
Since 1 July snowfall 0.0  
Snow Depth 0.00 in    
Sea Level Pressure  
Sea Level Pressure 30.09 in    
Wind  
Wind Speed 6 mph (ESE)    
Max Wind Speed 14 mph    
Max Gust Speed 18 mph    
Visibility 10 miles    
Events      
T = Trace of Precipitation, MM = Missing Value Source: NWS Daily Summary

Daily Weather History Graph

Daily Weather History Graph

Search for Another Location

Airport or City:

Astronomy

May. 24, 2019 Rise Set
Actual Time 6:05 AM CDT 7:57 PM CDT
Civil Twilight 5:38 AM CDT 8:24 PM CDT
Nautical Twilight 5:06 AM CDT 8:57 PM CDT
Astronomical Twilight 4:31 AM CDT 9:31 PM CDT
Moon 12:23 AM CDT (5/24) 11:05 AM CDT (5/24)
Length of Visible Light 14h 45m
Length of Day
13h 52m
Waning Gibbous, 68% of the Moon is Illuminated
May 24
Waning Gibbous
May 26
Last Quarter
Jun 3
New
Jun 10
First Quarter
Jun 17
Full

Hourly Weather History & Observations

Time (CDT) Temp. Heat Index Dew Point Humidity Pressure Visibility Wind Dir Wind Speed Gust Speed Precip Events Conditions
12:53 AM 73.9 °F - 72.0 °F 93% 30.08 in 10.0 mi East 4.6 mph - N/A   Clear
1:53 AM 73.0 °F - 71.1 °F 93% 30.07 in 10.0 mi Calm Calm - N/A   Clear
2:53 AM 72.0 °F - 70.0 °F 93% 30.06 in 10.0 mi ENE 3.5 mph - N/A   Clear
3:44 AM 71.1 °F - 70.0 °F 96% 30.07 in 10.0 mi Calm Calm - N/A   Mostly Cloudy
3:51 AM 71.6 °F - 69.8 °F 94% 30.07 in 10.0 mi ENE 4.6 mph - N/A   Scattered Clouds
3:53 AM 71.1 °F - 70.0 °F 96% 30.06 in 10.0 mi ENE 4.6 mph - N/A   Scattered Clouds
4:53 AM 72.0 °F - 71.1 °F 97% 30.07 in 9.0 mi East 5.8 mph - N/A   Mostly Cloudy
5:00 AM 73.0 °F - 72.0 °F 96% 30.07 in 9.0 mi East 4.6 mph - N/A   Mostly Cloudy
5:53 AM 71.1 °F - 70.0 °F 96% 30.08 in 7.0 mi Calm Calm - N/A   Mostly Cloudy
6:00 AM 71.1 °F - 70.0 °F 96% 30.08 in 6.0 mi Calm Calm - N/A   Mostly Cloudy
6:27 AM 72.0 °F - 70.0 °F 93% 30.09 in 7.0 mi East 3.5 mph - N/A   Partly Cloudy
6:53 AM 72.0 °F - 71.1 °F 97% 30.10 in 8.0 mi East 3.5 mph - N/A   Partly Cloudy
7:53 AM 75.9 °F - 72.0 °F 87% 30.12 in 10.0 mi East 3.5 mph - N/A   Clear
8:53 AM 79.0 °F - 73.0 °F 82% 30.13 in 10.0 mi ESE 6.9 mph - N/A   Mostly Cloudy
9:53 AM 82.0 °F 85.9 °F 70.0 °F 67% 30.14 in 10.0 mi ESE 8.1 mph - N/A   Mostly Cloudy
10:53 AM 84.0 °F 87.0 °F 68.0 °F 58% 30.14 in 10.0 mi South 5.8 mph - N/A   Mostly Cloudy
11:00 AM 82.9 °F 85.8 °F 68.0 °F 60% 30.14 in 10.0 mi East 4.6 mph - N/A   Partly Cloudy
11:18 AM 86.0 °F 90.1 °F 69.1 °F 57% 30.14 in 10.0 mi SE 9.2 mph - N/A   Mostly Cloudy
11:42 AM 86.0 °F 90.7 °F 70.0 °F 59% 30.15 in 10.0 mi ESE 9.2 mph - N/A   Mostly Cloudy
11:53 AM 86.0 °F 89.4 °F 68.0 °F 55% 30.14 in 10.0 mi Variable 3.5 mph - N/A   Mostly Cloudy
12:53 PM 88.0 °F 90.3 °F 66.0 °F 48% 30.12 in 10.0 mi East 4.6 mph - N/A   Clear
1:53 PM 88.0 °F 90.3 °F 66.0 °F 48% 30.11 in 10.0 mi East 9.2 mph - N/A   Partly Cloudy
2:53 PM 90.0 °F 92.4 °F 66.0 °F 45% 30.09 in 10.0 mi ESE 3.5 mph - N/A   Scattered Clouds
3:53 PM 91.0 °F 93.8 °F 66.0 °F 44% 30.08 in 10.0 mi SE 8.1 mph - N/A   Clear
4:53 PM 90.0 °F 91.7 °F 64.9 °F 43% 30.06 in 10.0 mi East 8.1 mph - N/A   Partly Cloudy
5:53 PM 89.1 °F 92.1 °F 66.9 °F 48% 30.05 in 10.0 mi ESE 10.4 mph - N/A   Clear
6:53 PM 86.0 °F 91.5 °F 71.1 °F 61% 30.04 in 10.0 mi ESE 9.2 mph - N/A   Clear
7:53 PM 82.9 °F 87.5 °F 71.1 °F 67% 30.04 in 10.0 mi ESE 8.1 mph - N/A   Clear
8:53 PM 80.1 °F 83.6 °F 71.1 °F 74% 30.05 in 10.0 mi East 5.8 mph - N/A   Clear
9:53 PM 78.1 °F - 72.0 °F 81% 30.06 in 10.0 mi East 6.9 mph - N/A   Clear
10:53 PM 79.0 °F - 72.0 °F 79% 30.07 in 10.0 mi ESE 5.8 mph - N/A   Partly Cloudy
11:53 PM 78.1 °F - 72.0 °F 81% 30.07 in 10.0 mi SSE 8.1 mph - N/A   Partly Cloudy